Tracking 31027 objects as of 19-Jul-2025
HD Live streaming from Space Station
objects crossing your sky now

SINOD-D 3

Track SINOD-D 3 now!
10-day predictions
SINOD-D 3 is classified as:


NORAD ID: 40977
Int'l Code: 2015-058P
Perigee: 500.8 km
Apogee: 706.1 km
Inclination: 64.8 °
Period: 96.6 minutes
Semi major axis: 6974 km
RCS: Unknown
Launch date: October 8, 2015
Source: United States (US)
Launch site: AIR FORCE WESTERN TEST RANGE (AFWTR)

SINOD-D 3 is a 2-kilogram CubeSat from SRI International demonstrating software defined radio communications.
Your satellite tracking list
STARLINK-30236
Track 1 satellite(s)




NASA's NSSDC Master Catalog

Two Line Element Set (TLE):
1 40977U 15058P   25199.52376397  .00002571  00000-0  22878-3 0  9999
2 40977  64.7714 235.1185 0147157 185.3927 174.5609 14.90522734 64967
Source of the keplerian elements: AFSPC